Location: Newark
(48.7667°N, 7.9833°E)
Time: 09:46:24
(UTC+00:00)

Envisat - Visible Passes

Search period start: 18 August 2019 00:00
Search period end: 28 August 2019 00:00
Orbit: 764 x 766 km, 98.1° (Epoch: 17 August)

Date Brightness Start Highest point End Pass type
(mag) Time Alt. Az. Time Alt. Az. Time Alt. Az.
19 Aug 6.1 19:16:05 10° WSW 19:18:28 13° W 19:20:51 10° WNW visible
22 Aug 5.9 19:03:53 10° SW 19:07:04 16° W 19:10:15 10° NW visible
25 Aug 5.8 18:51:57 10° SW 18:55:40 20° W 18:59:25 10° NW visible
27 Aug 6.2 19:19:36 10° WSW 19:21:33 12° W 19:23:29 10° WNW visible
